Weather History for Bentonville, AR

Change the Weather History Date:

Friday, December 20, 2013

  Actual Average Record
Temperature  
Mean Temperature 47 °F -  
Max Temperature 62 °F 48 °F 70 °F (1978)
Min Temperature 32 °F 25 °F 5 °F (1983)
Degree Days  
Heating Degree Days 18    
Moisture  
Dew Point 39 °F    
Average Humidity 82    
Maximum Humidity 87    
Minimum Humidity 72    
Precipitation  
Precipitation 0.11 in - - ()
Sea Level Pressure  
Sea Level Pressure 29.81 in    
Wind  
Wind Speed 11 mph (WNW)    
Max Wind Speed 17 mph    
Max Gust Speed 24 mph    
Visibility 5 miles    
Events Thunderstorm    
Averages and records for this station are not official NWS values.
T = Trace of Precipitation, MM = Missing Value Source: NWS Daily Summary

Daily Weather History Graph

Daily Weather History Graph

Search for Another Location

Airport:

Trip Planner

Search our weather history database for the weather conditions in past years. The results will help you decide how hot, cold, wet, or windy it might be!

Date:

Astronomy

Dec. 20, 2013 Rise Set
Actual Time 7:24 AM CST 5:05 PM CST
Civil Twilight 6:55 AM CST 5:33 PM CST
Nautical Twilight 6:23 AM CST 6:06 PM CST
Astronomical Twilight 5:51 AM CST 6:37 PM CST
Moon 8:21 PM CST (12/20) 9:22 AM CST (12/20)
Length of Visible Light 10h 38m
Length of Day
9h 40m
Waning Gibbous, 90% of the Moon is Illuminated
Dec 20
Waning Gibbous
Dec 25
Last Quarter
Jan 1
New
Jan 7
First Quarter
Jan 15
Full

Hourly Weather History & Observations

Time (CST) Temp. Windchill Dew Point Humidity Pressure Visibility Wind Dir Wind Speed Gust Speed Precip Events Conditions
12:15 AM 60.8 °F - 53.6 °F 77% 29.73 in 10.0 mi South 13.8 mph - N/A   Mostly Cloudy
12:35 AM 60.8 °F - 53.6 °F 77% 29.73 in 10.0 mi South 12.7 mph 18.4 mph N/A   Mostly Cloudy
12:55 AM 62.6 °F - 53.6 °F 72% 29.72 in 10.0 mi South 15.0 mph 24.2 mph N/A   Overcast
1:15 AM 62.6 °F - 53.6 °F 72% 29.72 in 10.0 mi South 17.3 mph 20.7 mph N/A   Overcast
1:35 AM 62.6 °F - 53.6 °F 72% 29.72 in 10.0 mi South 13.8 mph 21.9 mph N/A   Mostly Cloudy
1:55 AM 62.6 °F - 55.4 °F 77% 29.72 in 10.0 mi SSW 13.8 mph 19.6 mph N/A   Overcast
2:15 AM 62.6 °F - 55.4 °F 77% 29.72 in 10.0 mi SSW 15.0 mph 19.6 mph N/A   Overcast
2:35 AM 62.6 °F - 55.4 °F 77% 29.73 in 10.0 mi SSW 11.5 mph 20.7 mph N/A   Overcast
2:55 AM 62.6 °F - 55.4 °F 77% 29.73 in 10.0 mi SSW 15.0 mph 19.6 mph N/A   Overcast
3:15 AM 62.6 °F - 55.4 °F 77% 29.73 in 10.0 mi SSW 12.7 mph 21.9 mph N/A   Overcast
3:35 AM 62.6 °F - 55.4 °F 77% 29.73 in 10.0 mi SSW 11.5 mph 20.7 mph N/A   Overcast
3:55 AM 60.8 °F - 55.4 °F 82% 29.73 in 10.0 mi SSW 11.5 mph 17.3 mph N/A   Mostly Cloudy
4:15 AM 62.6 °F - 55.4 °F 77% 29.74 in 10.0 mi SSW 11.5 mph 16.1 mph N/A   Overcast
4:35 AM 62.6 °F - 55.4 °F 77% 29.75 in 10.0 mi SW 9.2 mph - N/A   Overcast
4:55 AM 62.6 °F - 55.4 °F 77% 29.74 in 10.0 mi SSW 10.4 mph 18.4 mph N/A   Overcast
5:15 AM 62.6 °F - 55.4 °F 77% 29.75 in 10.0 mi SSW 10.4 mph - N/A   Overcast
5:35 AM 62.6 °F - 55.4 °F 77% 29.75 in 10.0 mi SW 11.5 mph - N/A   Overcast
5:55 AM 62.6 °F - 55.4 °F 77% 29.75 in 10.0 mi SW 11.5 mph 17.3 mph N/A   Overcast
6:15 AM 62.6 °F - 55.4 °F 77% 29.75 in 10.0 mi SW 10.4 mph - N/A   Overcast
6:35 AM 62.6 °F - 55.4 °F 77% 29.76 in 10.0 mi SSW 11.5 mph - N/A   Overcast
6:55 AM 62.6 °F - 55.4 °F 77% 29.76 in 10.0 mi SSW 9.2 mph 16.1 mph N/A   Overcast
7:15 AM 62.6 °F - 55.4 °F 77% 29.77 in 10.0 mi SW 9.2 mph 16.1 mph N/A   Overcast
7:35 AM 62.6 °F - 55.4 °F 77% 29.78 in 10.0 mi SW 12.7 mph - N/A   Overcast
7:55 AM 62.6 °F - 55.4 °F 77% 29.78 in 10.0 mi SW 13.8 mph 17.3 mph N/A   Overcast
8:15 AM 62.6 °F - 55.4 °F 77% 29.78 in 10.0 mi SW 15.0 mph 18.4 mph N/A   Overcast
8:35 AM 55.4 °F - 46.4 °F 72% 29.80 in 10.0 mi West 11.5 mph 24.2 mph N/A   Overcast
8:55 AM 48.2 °F - 42.8 °F 82% 29.82 in 5.0 mi NW 11.5 mph 18.4 mph N/A   Overcast
9:15 AM 44.6 °F 37.2 °F 37.4 °F 76% 29.83 in 2.5 mi NW 17.3 mph 23.0 mph N/A   Overcast
9:35 AM 41.0 °F 33.9 °F 35.6 °F 81% 29.85 in 1.5 mi NW 12.7 mph - N/A   Overcast
9:55 AM 39.2 °F 32.5 °F 35.6 °F 87% 29.86 in 1.2 mi NW 10.4 mph - N/A   Overcast
10:15 AM 39.2 °F 32.5 °F 35.6 °F 87% 29.87 in 0.8 mi WNW 10.4 mph - N/A   Overcast
10:35 AM 37.4 °F 30.8 °F 33.8 °F 87% 29.88 in 0.8 mi NW 9.2 mph - N/A   Overcast
10:55 AM 37.4 °F 31.4 °F 33.8 °F 87% 29.88 in 0.5 mi WNW 8.1 mph - N/A   Overcast
11:15 AM 37.4 °F 30.8 °F 33.8 °F 87% 29.87 in 0.5 mi WNW 9.2 mph - N/A   Overcast
11:35 AM 37.4 °F 31.4 °F 33.8 °F 87% 29.87 in 0.2 mi WNW 8.1 mph - N/A   Overcast
11:55 AM 35.6 °F 28.0 °F 32.0 °F 87% 29.88 in 0.2 mi WNW 10.4 mph - N/A   Overcast
12:15 PM 35.6 °F 28.0 °F 30.2 °F 81% 29.88 in 0.2 mi WNW 10.4 mph - N/A   Overcast
12:35 PM 33.8 °F 27.0 °F 30.2 °F 87% 29.87 in 0.5 mi WNW 8.1 mph - N/A   Overcast
12:55 PM 33.8 °F 26.4 °F 30.2 °F 87% 29.86 in 0.5 mi WNW 9.2 mph - N/A   Overcast
1:15 PM 33.8 °F 28.6 °F 30.2 °F 87% 29.85 in 0.8 mi WNW 5.8 mph - N/A   Overcast
1:35 PM 33.8 °F 27.7 °F 30.2 °F 87% 29.85 in 1.0 mi NW 6.9 mph - N/A   Overcast
1:55 PM 33.8 °F 29.6 °F 30.2 °F 87% 29.84 in 1.0 mi NW 4.6 mph - N/A   Overcast
2:15 PM 33.8 °F 29.6 °F 30.2 °F 87% 29.85 in 1.2 mi WNW 4.6 mph - N/A   Overcast
2:35 PM 33.8 °F 29.6 °F 30.2 °F 87% 29.86 in 1.2 mi NW 4.6 mph - N/A   Overcast
2:55 PM 33.8 °F - 30.2 °F 87% 29.85 in 1.2 mi Calm Calm - N/A   Overcast
3:15 PM 33.8 °F 28.6 °F 30.2 °F 87% 29.86 in 1.0 mi NW 5.8 mph - N/A   Overcast
3:35 PM 33.8 °F 28.6 °F 30.2 °F 87% 29.86 in 1.0 mi NNW 5.8 mph - N/A   Overcast
3:55 PM 33.8 °F 29.6 °F 30.2 °F 87% 29.85 in 1.0 mi North 4.6 mph - N/A   Overcast
4:15 PM 33.8 °F 29.6 °F 30.2 °F 87% 29.87 in 1.5 mi NNW 4.6 mph - N/A   Overcast
4:35 PM 33.8 °F 28.6 °F 30.2 °F 87% 29.88 in 1.5 mi NW 5.8 mph - N/A   Overcast
4:55 PM 33.8 °F 30.8 °F 28.4 °F 81% 29.88 in 2.0 mi NW 3.5 mph - N/A   Overcast
5:15 PM 33.8 °F 30.8 °F 28.4 °F 81% 29.87 in 4.0 mi NW 3.5 mph - N/A   Overcast
5:35 PM 33.8 °F 29.6 °F 28.4 °F 81% 29.87 in 3.0 mi NW 4.6 mph - N/A   Overcast
5:55 PM 32.0 °F 28.7 °F 28.4 °F 87% 29.87 in 6.0 mi NNW 3.5 mph - N/A   Overcast
6:15 PM 32.0 °F 28.7 °F 28.4 °F 87% 29.87 in 5.0 mi NW 3.5 mph - N/A   Overcast
6:35 PM 33.8 °F 29.6 °F 28.4 °F 81% 29.87 in 5.0 mi NNW 4.6 mph - N/A   Overcast
6:55 PM 32.0 °F 28.7 °F 28.4 °F 87% 29.86 in 3.0 mi North 3.5 mph - N/A   Overcast
7:15 PM 32.0 °F 27.5 °F 28.4 °F 87% 29.86 in 4.0 mi North 4.6 mph - N/A   Overcast
7:35 PM 33.8 °F 28.6 °F 28.4 °F 81% 29.86 in 5.0 mi North 5.8 mph - 0.01 in   Overcast
7:55 PM 32.0 °F 26.4 °F 28.4 °F 87% 29.85 in 5.0 mi North 5.8 mph - 0.01 in   Overcast
8:15 PM 32.0 °F 26.4 °F 28.4 °F 87% 29.84 in 5.0 mi North 5.8 mph - N/A   Overcast
8:35 PM 32.0 °F 26.4 °F 28.4 °F 87% 29.83 in 4.0 mi NNE 5.8 mph - N/A   Overcast
8:55 PM 33.8 °F 27.7 °F 28.4 °F 81% 29.83 in 3.0 mi North 6.9 mph - N/A   Overcast
9:15 PM 33.8 °F 28.6 °F 28.4 °F 81% 29.82 in 3.0 mi NNE 5.8 mph - N/A   Overcast
9:35 PM 33.8 °F 28.6 °F 28.4 °F 81% 29.81 in 4.0 mi NNE 5.8 mph - N/A   Overcast
9:55 PM 33.8 °F 28.6 °F 30.2 °F 87% 29.80 in 4.0 mi NNE 5.8 mph - N/A   Overcast
10:15 PM 33.8 °F 25.8 °F 30.2 °F 87% 29.78 in 4.0 mi NNE 10.4 mph - N/A   Overcast
10:35 PM 33.8 °F 27.7 °F 30.2 °F 87% 29.80 in 5.0 mi North 6.9 mph - 0.01 in   Overcast
10:55 PM 33.8 °F 26.4 °F 30.2 °F 87% 29.79 in 4.0 mi NNE 9.2 mph - 0.01 in   Overcast
11:15 PM 33.8 °F 26.4 °F 28.4 °F 81% 29.77 in 4.0 mi NNE 9.2 mph - N/A Thunderstorm Overcast
11:35 PM 32.0 °F 23.6 °F 28.4 °F 87% 29.76 in 4.0 mi NNE 10.4 mph - 0.01 in   Overcast
11:55 PM 33.8 °F 25.8 °F 28.4 °F 81% 29.76 in 3.0 mi North 10.4 mph - 0.09 in Thunderstorm Overcast